Meteo Giornale » Osservazioni meteo Samoa Americane » Pago Pago-Int Airp
ore: 18:50 - Osservazioni Meteo Pago Pago-Int Airp
Lat. 14° 20' S Lon. 170° 43' W Alt. 3 metri s.l.m.
27 °C
Molto Nuvoloso
Temp. 24 Ore
26 °C
30 °C
Est/Sud-Est
24 Km/h
Dew point 24 °C
Umidità 83 %
Visibilità 10 Km
Il sole sorge alle ore 06:28
Il sole tramonta alle ore 18:17
| Data e Ora | Cielo e Fenomeni | T °C | DP °C | Um. % | Pres. hPa | Vis. km | Vento km/h | |
|---|---|---|---|---|---|---|---|---|
| Oggi h: 18:50 | Molto Nuvoloso | 27 | 24 | 83 | 1014 | 10 | E/SE 24 | |
| Oggi h: 17:52 | Molto Nuvoloso | 26 | 24 | 88 | 1013 | 18 | E/SE 25.9 | |
| Oggi h: 16:52 | Pioggia | 26 | 24 | 88 | 1013 | 14 | SE 29.6 | |
| Oggi h: 15:55 | Coperto | 27 | 24 | 83 | 1013 | 18 | SE 27.8 | |
| Oggi h: 14:50 | Coperto | 28 | 24 | 78 | 1014 | 19 | SE 24 | |
| Oggi h: 13:50 | Coperto | 28 | 24 | 78 | 1014 | 19 | SE 24 | |
| Oggi h: 12:50 | Coperto | 29 | 24 | 74 | 1014 | 19 | E/SE 24 | |
| Oggi h: 11:50 | Molto Nuvoloso | 30 | 24 | 70 | 1015 | 19 | E/SE 22.2 | |
| Oggi h: 10:50 | Molto Nuvoloso | 29 | 24 | 74 | 1016 | 19 | E/SE 24 | |
| Oggi h: 09:50 | Molto Nuvoloso | 29 | 24 | 74 | 1016 | 19 | E/SE 25.9 | |
| Oggi h: 08:50 | Molto Nuvoloso | 28 | 24 | 78 | 1016 | 19 | E/SE 24 | |
| Oggi h: 06:50 | Molto Nuvoloso | 27 | 24 | 83 | 1015 | 19 | E/SE 25.9 | |
| Oggi h: 05:55 | Molto Nuvoloso | 26 | 24 | 88 | 1014 | 10 | SE 25.9 | |
| Oggi h: 04:50 | Molto Nuvoloso | 26 | 24 | 88 | 1014 | 10 | SE 24 | |
| Oggi h: 03:50 | Molto Nuvoloso | 26 | 24 | 88 | 1014 | 10 | SE 22.2 | |
| Oggi h: 02:50 | Molto Nuvoloso | 26 | 24 | 88 | 1014 | 10 | SE 24 | |
| Oggi h: 01:55 | Molto Nuvoloso | 26 | 24 | 88 | 1014 | 10 | SE 24 | |
| Oggi h: 00:50 | Molto Nuvoloso | 26 | 24 | 88 | 1015 | 10 | SE 24 | |
| Ieri h: 23:50 | Molto Nuvoloso | 26 | 24 | 88 | 1015 | 10 | E/SE 20.3 | |
| Ieri h: 22:50 | Molto Nuvoloso | 27 | 24 | 83 | 1015 | 10 | SE 20.3 | |
| Ieri h: 21:50 | Molto Nuvoloso | 27 | 24 | 83 | 1015 | 10 | E/SE 18.5 | |
| Ieri h: 20:50 | Molto Nuvoloso | 27 | 24 | 83 | 1015 | 10 | SE 18.5 | |
| Ieri h: 19:50 | Molto Nuvoloso | 27 | 24 | 83 | 1015 | 10 | E/SE 18.5 | |



